QPF
0.00 0.00 0.00 0.00 0.00 0.00 0.00 0.00 0.00 0.00 0.00 0.00 0.00 0.00 0.00 0.00 0.00 0.00 0.00 0.00 0.00 0.01 0.02 0.02 0.02 0.03 0.02 0.02 0.03 0.03 0.02 0.02 0.02 0.02 0.02 0.02 0.02 0.01 0.02 0.01 0.01 0.01 0.01 0.01 0.01 0.01 0.01 0.01 0.01
0.01 0.00 0.01 0.01 0.00 0.00 0.00 0.00 0.00 0.00 0.00 0.00 0.00 0.00 0.00 0.00 0.00 0.00 0.00 0.00 0.00 0.01 0.01 0.01 0.02 0.03 0.03 0.03 0.03 0.03 0.03 0.02 0.02 0.02 0.02 0.02 0.03 0.04 0.02 0.01 0.01 0.01 0.01 0.02 0.01 0.01 0.01 0.01 0.01
0.00 0.00 0.01 0.01 0.00 0.00 0.00 0.00 0.00 0.00 0.00 0.00 0.00 0.00 0.00 0.00 0.00 0.00 0.00 0.00 0.00 0.01 0.01 0.01 0.02 0.03 0.03 0.03 0.03 0.03 0.03 0.02 0.02 0.02 0.02 0.02 0.03 0.04 0.03 0.02 0.02 0.01 0.01 0.01 0.01 0.01 0.01 0.01 0.01
0.00 0.00 0.01 0.01 0.00 0.00 0.00 0.00 0.00 0.00 0.00 0.00 0.00 0.00 0.00 0.00 0.00 0.00 0.00 0.00 0.00 0.01 0.01 0.02 0.02 0.03 0.03 0.02 0.03 0.03 0.03 0.02 0.02 0.02 0.03 0.03 0.03 0.03 0.03 0.03 0.02 0.01 0.01 0.01 0.01 0.01 0.01 0.00 0.01
0.00 0.01 0.01 0.01 0.00 0.00 0.00 0.00 0.00 0.01 0.01 0.01 0.00 0.00 0.00 0.00 0.00 0.00 0.00 0.01 0.01 0.01 0.01 0.01 0.02 0.03 0.04 0.02 0.02 0.03 0.02 0.02 0.02 0.02 0.03 0.03 0.02 0.03 0.03 0.02 0.02 0.01 0.01 0.01 0.01 0.00 0.00 0.00 0.01
0.00 0.01 0.01 0.00 0.00 0.00 0.00 0.00 0.00 0.00 0.01 0.01 0.01 0.00 0.00 0.00 0.00 0.00 0.01 0.01 0.00 0.01 0.01 0.01 0.02 0.03 0.04 0.03 0.03 0.02 0.02 0.02 0.02 0.01 0.02 0.03 0.02 0.02 0.03 0.02 0.02 0.02 0.01 0.01 0.00 0.00 0.00 0.00 0.01
0.00 0.01 0.00 0.00 0.00 0.00 0.00 0.00 0.00 0.00 0.01 0.01 0.02 0.01 0.00 0.01 0.01 0.01 0.00 0.01 0.01 0.01 0.01 0.01 0.02 0.04 0.04 0.05 0.04 0.02 0.02 0.02 0.02 0.01 0.02 0.03 0.02 0.01 0.02 0.02 0.02 0.01 0.01 0.01 0.01 0.00 0.00 0.01 0.00
0.00 0.01 0.00 0.00 0.00 0.00 0.00 0.00 0.00 0.00 0.00 0.01 0.02 0.02 0.01 0.01 0.01 0.01 0.01 0.01 0.01 0.01 0.01 0.01 0.02 0.04 0.04 0.05 0.05 0.03 0.02 0.03 0.02 0.02 0.02 0.02 0.02 0.02 0.02 0.02 0.02 0.01 0.01 0.01 0.01 0.01 0.01 0.01 0.00
0.01 0.01 0.01 0.00 0.00 0.00 0.00 0.00 0.00 0.00 0.01 0.01 0.01 0.02 0.02 0.01 0.01 0.01 0.02 0.01 0.01 0.01 0.01 0.01 0.02 0.03 0.05 0.06 0.05 0.04 0.03 0.03 0.03 0.02 0.02 0.02 0.02 0.02 0.02 0.02 0.02 0.02 0.02 0.02 0.01 0.01 0.01 0.01 0.01
0.01 0.01 0.01 0.00 0.00 0.01 0.00 0.00 0.00 0.00 0.01 0.01 0.00 0.01 0.01 0.01 0.02 0.02 0.02 0.01 0.01 0.01 0.01 0.01 0.02 0.03 0.04 0.05 0.06 0.06 0.05 0.05 0.04 0.03 0.03 0.02 0.02 0.01 0.01 0.01 0.01 0.02 0.02 0.02 0.01 0.01 0.01 0.01 0.02
0.01 0.01 0.00 0.00 0.00 0.01 0.01 0.00 0.00 0.00 0.00 0.01 0.01 0.01 0.01 0.02 0.03 0.03 0.02 0.01 0.01 0.01 0.01 0.02 0.02 0.03 0.03 0.05 0.06 0.07 0.07 0.06 0.06 0.05 0.05 0.03 0.03 0.03 0.02 0.01 0.02 0.02 0.02 0.02 0.02 0.02 0.02 0.03 0.03
0.01 0.01 0.00 0.00 0.01 0.01 0.01 0.01 0.01 0.00 0.01 0.01 0.01 0.01 0.01 0.02 0.02 0.03 0.03 0.03 0.02 0.02 0.02 0.02 0.02 0.03 0.03 0.04 0.05 0.07 0.07 0.06 0.06 0.05 0.04 0.04 0.05 0.05 0.03 0.02 0.01 0.02 0.02 0.02 0.02 0.02 0.03 0.04 0.06
0.02 0.01 0.00 0.00 0.01 0.01 0.01 0.01 0.01 0.00 0.00 0.01 0.01 0.01 0.01 0.02 0.03 0.04 0.04 0.04 0.03 0.02 0.02 0.02 0.02 0.03 0.04 0.05 0.05 0.07 0.08 0.06 0.06 0.05 0.05 0.05 0.04 0.04 0.05 0.03 0.01 0.01 0.01 0.02 0.02 0.02 0.03 0.04 0.06
0.02 0.01 0.01 0.01 0.01 0.01 0.01 0.01 0.01 0.01 0.00 0.01 0.01 0.01 0.01 0.03 0.04 0.04 0.05 0.05 0.04 0.03 0.02 0.03 0.02 0.03 0.04 0.06 0.06 0.06 0.08 0.07 0.05 0.04 0.04 0.04 0.03 0.04 0.05 0.05 0.03 0.01 0.01 0.01 0.02 0.04 0.03 0.02 0.01
0.02 0.01 0.01 0.01 0.01 0.01 0.01 0.01 0.01 0.01 0.01 0.01 0.01 0.01 0.02 0.03 0.04 0.04 0.05 0.05 0.05 0.04 0.03 0.03 0.03 0.03 0.04 0.06 0.06 0.07 0.06 0.06 0.04 0.03 0.03 0.03 0.03 0.04 0.03 0.05 0.04 0.03 0.02 0.01 0.02 0.02 0.03 0.02 0.01
0.04 0.03 0.02 0.01 0.01 0.02 0.02 0.01 0.00 0.00 0.01 0.01 0.01 0.02 0.03 0.03 0.04 0.05 0.05 0.06 0.07 0.06 0.04 0.03 0.03 0.04 0.05 0.05 0.05 0.06 0.07 0.06 0.05 0.04 0.03 0.03 0.05 0.06 0.06 0.05 0.06 0.05 0.04 0.03 0.03 0.02 0.02 0.03 0.02
0.05 0.04 0.02 0.01 0.01 0.02 0.02 0.01 0.00 0.01 0.01 0.01 0.01 0.01 0.03 0.04 0.05 0.06 0.06 0.06 0.06 0.07 0.05 0.04 0.03 0.03 0.03 0.05 0.05 0.05 0.06 0.06 0.04 0.05 0.04 0.03 0.04 0.06 0.08 0.09 0.10 0.09 0.07 0.05 0.04 0.03 0.03 0.03 0.04
0.04 0.04 0.02 0.02 0.01 0.02 0.02 0.01 0.00 0.01 0.01 0.01 0.01 0.02 0.02 0.04 0.05 0.07 0.08 0.07 0.08 0.08 0.07 0.05 0.03 0.03 0.04 0.05 0.06 0.05 0.05 0.06 0.04 0.03 0.04 0.03 0.03 0.04 0.05 0.06 0.07 0.06 0.06 0.06 0.06 0.05 0.05 0.05 0.04
0.04 0.04 0.03 0.02 0.01 0.02 0.02 0.01 0.00 0.01 0.02 0.02 0.02 0.03 0.03 0.04 0.04 0.06 0.07 0.07 0.09 0.09 0.08 0.07 0.05 0.04 0.04 0.05 0.06 0.06 0.05 0.05 0.03 0.03 0.02 0.03 0.03 0.03 0.04 0.04 0.04 0.03 0.03 0.03 0.04 0.07 0.08 0.09 0.08
0.05 0.04 0.03 0.02 0.01 0.02 0.01 0.01 0.01 0.02 0.02 0.02 0.03 0.04 0.04 0.04 0.04 0.06 0.06 0.06 0.09 0.11 0.08 0.06 0.05 0.04 0.04 0.04 0.05 0.05 0.05 0.04 0.03 0.03 0.03 0.02 0.02 0.03 0.03 0.03 0.02 0.02 0.02 0.03 0.03 0.03 0.04 0.06 0.07
0.03 0.03 0.03 0.02 0.03 0.02 0.02 0.01 0.02 0.04 0.04 0.03 0.03 0.03 0.04 0.05 0.05 0.06 0.07 0.06 0.06 0.09 0.09 0.08 0.05 0.04 0.04 0.04 0.07 0.07 0.06 0.04 0.04 0.05 0.06 0.04 0.02 0.02 0.02 0.03 0.02 0.01 0.01 0.01 0.02 0.02 0.02 0.02 0.03
0.03 0.02 0.03 0.03 0.04 0.03 0.03 0.04 0.03 0.05 0.06 0.03 0.03 0.03 0.04 0.05 0.06 0.06 0.07 0.06 0.06 0.07 0.08 0.08 0.06 0.05 0.07 0.06 0.08 0.08 0.06 0.03 0.03 0.04 0.06 0.06 0.06 0.04 0.04 0.04 0.04 0.02 0.01 0.01 0.01 0.01 0.02 0.02 0.01
0.02 0.02 0.04 0.03 0.03 0.05 0.06 0.08 0.06 0.07 0.07 0.04 0.03 0.04 0.04 0.04 0.04 0.06 0.07 0.05 0.05 0.07 0.08 0.11 0.08 0.07 0.09 0.09 0.10 0.08 0.06 0.03 0.02 0.02 0.04 0.05 0.05 0.05 0.06 0.06 0.06 0.05 0.03 0.02 0.01 0.01 0.01 0.01 0.01
0.02 0.02 0.03 0.04 0.05 0.07 0.07 0.08 0.09 0.08 0.06 0.05 0.04 0.05 0.05 0.04 0.03 0.04 0.06 0.06 0.06 0.07 0.08 0.11 0.10 0.09 0.11 0.11 0.10 0.07 0.04 0.03 0.03 0.02 0.04 0.05 0.05 0.06 0.06 0.07 0.07 0.07 0.05 0.04 0.03 0.02 0.01 0.01 0.01
0.04 0.04 0.04 0.04 0.05 0.05 0.03 0.04 0.05 0.05 0.04 0.04 0.04 0.07 0.06 0.04 0.03 0.03 0.06 0.08 0.06 0.07 0.07 0.09 0.12 0.11 0.10 0.13 0.12 0.11 0.07 0.04 0.03 0.03 0.03 0.05 0.05 0.06 0.06 0.07 0.08 0.08 0.07 0.06 0.05 0.04 0.04 0.03 0.03
0.03 0.03 0.04 0.04 0.03 0.02 0.02 0.02 0.02 0.02 0.02 0.02 0.04 0.07 0.06 0.05 0.04 0.04 0.05 0.09 0.08 0.07 0.07 0.08 0.10 0.12 0.11 0.11 0.12 0.12 0.11 0.09 0.06 0.05 0.05 0.06 0.07 0.08 0.09 0.09 0.10 0.10 0.09 0.08 0.07 0.06 0.04 0.04 0.04
0.02 0.02 0.02 0.03 0.03 0.02 0.02 0.02 0.02 0.01 0.01 0.02 0.04 0.06 0.04 0.05 0.05 0.05 0.05 0.07 0.09 0.10 0.10 0.08 0.09 0.10 0.11 0.11 0.11 0.12 0.12 0.10 0.08 0.08 0.07 0.07 0.07 0.08 0.09 0.10 0.10 0.11 0.10 0.09 0.08 0.06 0.04 0.03 0.02
0.01 0.02 0.03 0.03 0.03 0.02 0.02 0.02 0.02 0.02 0.02 0.02 0.04 0.04 0.04 0.04 0.04 0.05 0.04 0.05 0.07 0.10 0.12 0.09 0.10 0.12 0.12 0.12 0.11 0.10 0.12 0.12 0.10 0.11 0.10 0.09 0.08 0.09 0.09 0.10 0.11 0.11 0.10 0.08 0.07 0.06 0.05 0.03 0.02
0.01 0.02 0.03 0.03 0.02 0.02 0.02 0.02 0.02 0.02 0.02 0.02 0.02 0.02 0.03 0.04 0.04 0.04 0.05 0.05 0.06 0.09 0.11 0.11 0.10 0.12 0.15 0.14 0.12 0.10 0.09 0.11 0.11 0.09 0.11 0.10 0.08 0.08 0.07 0.08 0.09 0.10 0.10 0.09 0.08 0.06 0.05 0.04 0.03
0.01 0.01 0.02 0.04 0.03 0.02 0.02 0.02 0.01 0.01 0.02 0.01 0.01 0.01 0.02 0.03 0.02 0.04 0.05 0.06 0.07 0.08 0.09 0.09 0.10 0.11 0.14 0.15 0.13 0.11 0.08 0.09 0.09 0.08 0.09 0.10 0.09 0.07 0.07 0.06 0.07 0.07 0.07 0.08 0.08 0.08 0.07 0.05 0.03
MSLP
1017.28 1017.06 1016.77 1016.42 1016.02 1015.59 1015.16 1014.75 1014.38 1014.07 1013.80 1013.59 1013.39 1013.21 1013.01 1012.80 1012.57 1012.37 1012.22 1012.17 1012.27 1012.53 1012.97 1013.55 1014.23 1014.92 1015.56 1016.09 1016.48 1016.73 1016.87 1016.94 1017.01 1017.12 1017.29 1017.52 1017.80 1018.09 1018.35 1018.55 1018.71 1018.83 1018.93 1019.05 1019.20 1019.39 1019.60 1019.81 1019.97
1017.43 1017.06 1016.60 1016.07 1015.50 1014.95 1014.44 1014.00 1013.65 1013.38 1013.18 1013.02 1012.86 1012.69 1012.49 1012.26 1012.01 1011.79 1011.65 1011.63 1011.79 1012.13 1012.66 1013.34 1014.11 1014.88 1015.59 1016.17 1016.59 1016.86 1017.01 1017.09 1017.16 1017.27 1017.45 1017.69 1017.96 1018.25 1018.50 1018.71 1018.86 1018.98 1019.10 1019.24 1019.43 1019.66 1019.91 1020.15 1020.34
1017.46 1016.91 1016.24 1015.51 1014.78 1014.11 1013.54 1013.10 1012.80 1012.61 1012.51 1012.45 1012.37 1012.26 1012.10 1011.88 1011.64 1011.43 1011.31 1011.33 1011.53 1011.93 1012.52 1013.26 1014.08 1014.89 1015.63 1016.23 1016.67 1016.96 1017.12 1017.21 1017.29 1017.41 1017.60 1017.84 1018.12 1018.40 1018.66 1018.86 1019.02 1019.16 1019.29 1019.46 1019.67 1019.93 1020.22 1020.48 1020.69
1017.36 1016.59 1015.71 1014.78 1013.89 1013.11 1012.51 1012.10 1011.87 1011.81 1011.83 1011.90 1011.94 1011.93 1011.84 1011.68 1011.49 1011.32 1011.23 1011.28 1011.52 1011.95 1012.57 1013.32 1014.15 1014.97 1015.70 1016.30 1016.74 1017.02 1017.19 1017.30 1017.40 1017.54 1017.74 1017.99 1018.28 1018.57 1018.84 1019.06 1019.23 1019.39 1019.54 1019.73 1019.96 1020.24 1020.53 1020.81 1021.02
1017.10 1016.13 1015.04 1013.94 1012.91 1012.07 1011.45 1011.09 1010.96 1011.02 1011.19 1011.40 1011.57 1011.68 1011.69 1011.62 1011.51 1011.41 1011.38 1011.48 1011.74 1012.18 1012.79 1013.52 1014.30 1015.08 1015.78 1016.35 1016.77 1017.06 1017.24 1017.37 1017.50 1017.67 1017.89 1018.17 1018.48 1018.79 1019.08 1019.32 1019.52 1019.69 1019.87 1020.07 1020.31 1020.58 1020.87 1021.13 1021.33
1016.73 1015.59 1014.34 1013.10 1012.00 1011.12 1010.52 1010.21 1010.18 1010.35 1010.64 1010.96 1011.26 1011.48 1011.61 1011.65 1011.64 1011.63 1011.67 1011.82 1012.10 1012.53 1013.10 1013.77 1014.48 1015.19 1015.83 1016.36 1016.77 1017.06 1017.27 1017.44 1017.60 1017.81 1018.07 1018.38 1018.71 1019.05 1019.37 1019.64 1019.87 1020.07 1020.26 1020.47 1020.70 1020.95 1021.20 1021.42 1021.59
1016.33 1015.08 1013.73 1012.43 1011.29 1010.41 1009.84 1009.59 1009.61 1009.85 1010.21 1010.61 1010.99 1011.30 1011.52 1011.67 1011.77 1011.86 1011.99 1012.19 1012.49 1012.90 1013.41 1014.00 1014.62 1015.24 1015.81 1016.30 1016.70 1017.02 1017.27 1017.49 1017.72 1017.97 1018.27 1018.61 1018.98 1019.34 1019.69 1019.99 1020.24 1020.47 1020.67 1020.87 1021.08 1021.29 1021.50 1021.67 1021.79
1015.98 1014.68 1013.32 1012.01 1010.90 1010.05 1009.52 1009.29 1009.33 1009.57 1009.93 1010.34 1010.73 1011.08 1011.37 1011.60 1011.81 1012.01 1012.22 1012.48 1012.80 1013.18 1013.63 1014.13 1014.67 1015.20 1015.71 1016.17 1016.58 1016.94 1017.25 1017.54 1017.83 1018.14 1018.48 1018.85 1019.24 1019.62 1019.98 1020.30 1020.58 1020.83 1021.03 1021.23 1021.41 1021.57 1021.72 1021.84 1021.91
1015.74 1014.48 1013.16 1011.93 1010.88 1010.09 1009.58 1009.35 1009.35 1009.52 1009.79 1010.11 1010.45 1010.78 1011.09 1011.39 1011.69 1011.99 1012.30 1012.63 1012.97 1013.34 1013.73 1014.15 1014.60 1015.06 1015.52 1015.98 1016.41 1016.82 1017.21 1017.57 1017.93 1018.29 1018.66 1019.05 1019.44 1019.83 1020.19 1020.53 1020.82 1021.08 1021.29 1021.48 1021.63 1021.76 1021.85 1021.91 1021.93
1015.62 1014.45 1013.26 1012.15 1011.20 1010.48 1009.98 1009.70 1009.60 1009.62 1009.73 1009.90 1010.11 1010.36 1010.66 1011.00 1011.38 1011.79 1012.20 1012.60 1012.98 1013.35 1013.70 1014.06 1014.44 1014.84 1015.27 1015.73 1016.21 1016.68 1017.14 1017.58 1018.00 1018.40 1018.79 1019.18 1019.56 1019.93 1020.29 1020.62 1020.92 1021.19 1021.41 1021.59 1021.73 1021.82 1021.88 1021.89 1021.87
1015.56 1014.54 1013.51 1012.55 1011.73 1011.08 1010.58 1010.22 1009.97 1009.79 1009.68 1009.64 1009.68 1009.82 1010.07 1010.44 1010.90 1011.41 1011.93 1012.43 1012.87 1013.25 1013.59 1013.91 1014.23 1014.60 1015.02 1015.49 1016.00 1016.54 1017.06 1017.57 1018.03 1018.46 1018.84 1019.21 1019.56 1019.90 1020.24 1020.57 1020.87 1021.15 1021.39 1021.57 1021.71 1021.79 1021.82 1021.81 1021.75
1015.47 1014.63 1013.78 1012.99 1012.30 1011.71 1011.19 1010.73 1010.31 1009.90 1009.55 1009.27 1009.12 1009.14 1009.35 1009.74 1010.28 1010.90 1011.55 1012.15 1012.68 1013.10 1013.45 1013.75 1014.05 1014.39 1014.80 1015.29 1015.83 1016.41 1016.99 1017.53 1018.02 1018.44 1018.81 1019.14 1019.46 1019.76 1020.08 1020.39 1020.71 1021.00 1021.26 1021.47 1021.61 1021.70 1021.72 1021.68 1021.61
1015.24 1014.56 1013.89 1013.28 1012.71 1012.18 1011.64 1011.08 1010.48 1009.85 1009.25 1008.75 1008.43 1008.33 1008.50 1008.93 1009.56 1010.31 1011.09 1011.83 1012.45 1012.94 1013.33 1013.63 1013.93 1014.26 1014.66 1015.16 1015.72 1016.32 1016.92 1017.47 1017.96 1018.37 1018.71 1019.00 1019.27 1019.55 1019.84 1020.16 1020.48 1020.80 1021.08 1021.31 1021.48 1021.58 1021.60 1021.57 1021.49
1014.76 1014.23 1013.73 1013.27 1012.82 1012.34 1011.79 1011.13 1010.37 1009.55 1008.75 1008.07 1007.60 1007.43 1007.59 1008.06 1008.79 1009.68 1010.60 1011.47 1012.21 1012.79 1013.23 1013.57 1013.87 1014.21 1014.61 1015.11 1015.67 1016.27 1016.86 1017.41 1017.87 1018.25 1018.56 1018.81 1019.06 1019.32 1019.60 1019.92 1020.26 1020.60 1020.92 1021.18 1021.37 1021.48 1021.52 1021.48 1021.40
1014.01 1013.61 1013.24 1012.91 1012.56 1012.13 1011.57 1010.85 1009.98 1009.02 1008.07 1007.25 1006.70 1006.48 1006.65 1007.19 1008.02 1009.02 1010.08 1011.08 1011.93 1012.61 1013.12 1013.51 1013.85 1014.20 1014.61 1015.10 1015.65 1016.23 1016.80 1017.32 1017.75 1018.10 1018.38 1018.62 1018.85 1019.10 1019.40 1019.74 1020.10 1020.46 1020.80 1021.08 1021.29 1021.42 1021.46 1021.44 1021.35
1013.04 1012.72 1012.47 1012.24 1011.98 1011.60 1011.04 1010.28 1009.33 1008.28 1007.24 1006.36 1005.76 1005.54 1005.73 1006.33 1007.24 1008.35 1009.52 1010.62 1011.58 1012.35 1012.94 1013.40 1013.78 1014.17 1014.60 1015.08 1015.62 1016.18 1016.72 1017.20 1017.60 1017.92 1018.18 1018.42 1018.66 1018.93 1019.25 1019.62 1020.00 1020.39 1020.74 1021.03 1021.25 1021.38 1021.43 1021.41 1021.34
1011.91 1011.67 1011.50 1011.36 1011.16 1010.82 1010.27 1009.50 1008.52 1007.43 1006.36 1005.45 1004.85 1004.64 1004.86 1005.50 1006.47 1007.64 1008.88 1010.06 1011.09 1011.94 1012.61 1013.14 1013.59 1014.03 1014.49 1015.00 1015.53 1016.07 1016.57 1017.02 1017.40 1017.71 1017.97 1018.22 1018.49 1018.79 1019.15 1019.54 1019.95 1020.35 1020.70 1020.98 1021.19 1021.32 1021.38 1021.37 1021.32
1010.76 1010.57 1010.46 1010.38 1010.22 1009.91 1009.38 1008.61 1007.63 1006.54 1005.48 1004.59 1004.00 1003.82 1004.06 1004.72 1005.71 1006.89 1008.15 1009.36 1010.43 1011.34 1012.08 1012.69 1013.22 1013.72 1014.24 1014.78 1015.32 1015.85 1016.34 1016.77 1017.13 1017.43 1017.71 1017.99 1018.30 1018.65 1019.04 1019.46 1019.89 1020.28 1020.63 1020.90 1021.09 1021.22 1021.28 1021.29 1021.27
1009.67 1009.52 1009.45 1009.40 1009.27 1008.97 1008.45 1007.68 1006.72 1005.66 1004.63 1003.78 1003.24 1003.08 1003.34 1003.99 1004.95 1006.11 1007.33 1008.52 1009.59 1010.53 1011.32 1012.01 1012.62 1013.21 1013.80 1014.39 1014.97 1015.51 1016.00 1016.42 1016.77 1017.09 1017.38 1017.70 1018.05 1018.44 1018.87 1019.32 1019.76 1020.15 1020.47 1020.72 1020.90 1021.02 1021.09 1021.14 1021.17
1008.70 1008.57 1008.53 1008.48 1008.35 1008.03 1007.49 1006.73 1005.79 1004.77 1003.80 1003.02 1002.53 1002.41 1002.68 1003.31 1004.21 1005.30 1006.45 1007.57 1008.61 1009.55 1010.38 1011.13 1011.83 1012.51 1013.18 1013.84 1014.46 1015.03 1015.53 1015.96 1016.32 1016.65 1016.97 1017.32 1017.71 1018.14 1018.60 1019.07 1019.51 1019.89 1020.20 1020.43 1020.59 1020.72 1020.82 1020.91 1021.00
1007.82 1007.72 1007.68 1007.60 1007.42 1007.06 1006.49 1005.72 1004.81 1003.84 1002.96 1002.26 1001.85 1001.79 1002.07 1002.67 1003.51 1004.50 1005.55 1006.59 1007.56 1008.47 1009.31 1010.11 1010.89 1011.66 1012.42 1013.15 1013.83 1014.44 1014.96 1015.40 1015.77 1016.11 1016.46 1016.83 1017.25 1017.72 1018.20 1018.68 1019.12 1019.49 1019.79 1020.01 1020.18 1020.32 1020.46 1020.61 1020.77
1007.00 1006.91 1006.83 1006.70 1006.44 1006.01 1005.39 1004.60 1003.71 1002.82 1002.03 1001.45 1001.14 1001.16 1001.48 1002.07 1002.86 1003.76 1004.70 1005.64 1006.53 1007.39 1008.23 1009.06 1009.89 1010.73 1011.57 1012.37 1013.10 1013.75 1014.30 1014.76 1015.14 1015.50 1015.86 1016.26 1016.70 1017.18 1017.68 1018.17 1018.61 1018.99 1019.28 1019.51 1019.70 1019.87 1020.05 1020.27 1020.51
1006.16 1006.06 1005.93 1005.71 1005.35 1004.83 1004.14 1003.32 1002.46 1001.65 1000.98 1000.54 1000.38 1000.51 1000.90 1001.51 1002.26 1003.09 1003.94 1004.78 1005.59 1006.39 1007.20 1008.04 1008.90 1009.80 1010.69 1011.54 1012.33 1013.01 1013.59 1014.06 1014.47 1014.84 1015.21 1015.62 1016.08 1016.57 1017.09 1017.58 1018.03 1018.41 1018.72 1018.97 1019.18 1019.39 1019.63 1019.91 1020.21
1005.28 1005.14 1004.93 1004.61 1004.13 1003.50 1002.73 1001.90 1001.07 1000.36 999.83 999.55 999.55 999.82 1000.32 1000.98 1001.73 1002.52 1003.30 1004.05 1004.78 1005.52 1006.28 1007.10 1007.98 1008.90 1009.82 1010.72 1011.54 1012.25 1012.85 1013.35 1013.77 1014.16 1014.54 1014.97 1015.44 1015.94 1016.46 1016.97 1017.42 1017.82 1018.15 1018.43 1018.68 1018.94 1019.22 1019.55 1019.91
1004.37 1004.17 1003.87 1003.42 1002.82 1002.08 1001.25 1000.40 999.62 999.00 998.62 998.52 998.70 999.12 999.74 1000.47 1001.25 1002.02 1002.75 1003.43 1004.09 1004.76 1005.48 1006.27 1007.13 1008.05 1008.99 1009.90 1010.74 1011.48 1012.11 1012.63 1013.07 1013.48 1013.89 1014.33 1014.81 1015.32 1015.86 1016.37 1016.84 1017.26 1017.62 1017.93 1018.22 1018.52 1018.85 1019.21 1019.61
1003.48 1003.20 1002.79 1002.23 1001.51 1000.68 999.79 998.94 998.21 997.71 997.47 997.53 997.87 998.45 999.18 999.99 1000.80 1001.57 1002.26 1002.89 1003.49 1004.10 1004.77 1005.52 1006.35 1007.25 1008.18 1009.10 1009.95 1010.71 1011.36 1011.91 1012.38 1012.82 1013.26 1013.72 1014.22 1014.75 1015.30 1015.82 1016.32 1016.76 1017.14 1017.49 1017.82 1018.15 1018.51 1018.90 1019.31
1002.69 1002.32 1001.81 1001.14 1000.33 999.43 998.51 997.67 997.00 996.59 996.48 996.68 997.15 997.84 998.66 999.53 1000.36 1001.12 1001.79 1002.38 1002.93 1003.49 1004.11 1004.81 1005.61 1006.48 1007.39 1008.30 1009.16 1009.93 1010.61 1011.19 1011.70 1012.18 1012.66 1013.16 1013.68 1014.23 1014.79 1015.34 1015.85 1016.31 1016.73 1017.11 1017.47 1017.84 1018.22 1018.62 1019.03
1002.05 1001.59 1000.99 1000.24 999.37 998.43 997.51 996.70 996.09 995.76 995.74 996.03 996.59 997.34 998.20 999.09 999.92 1000.66 1001.30 1001.86 1002.37 1002.89 1003.46 1004.13 1004.89 1005.73 1006.62 1007.51 1008.36 1009.15 1009.85 1010.47 1011.03 1011.56 1012.08 1012.62 1013.18 1013.76 1014.34 1014.91 1015.44 1015.93 1016.37 1016.78 1017.17 1017.56 1017.96 1018.37 1018.78
1001.58 1001.05 1000.38 999.58 998.68 997.75 996.85 996.09 995.53 995.27 995.31 995.64 996.22 996.97 997.82 998.68 999.48 1000.19 1000.79 1001.31 1001.79 1002.29 1002.83 1003.46 1004.19 1005.00 1005.86 1006.74 1007.58 1008.38 1009.11 1009.76 1010.37 1010.95 1011.52 1012.11 1012.70 1013.31 1013.92 1014.51 1015.06 1015.58 1016.06 1016.50 1016.92 1017.34 1017.76 1018.18 1018.60
1001.25 1000.64 999.93 999.11 998.23 997.33 996.49 995.79 995.30 995.08 995.15 995.48 996.03 996.74 997.53 998.32 999.06 999.71 1000.28 1000.77 1001.23 1001.71 1002.24 1002.86 1003.56 1004.34 1005.17 1006.02 1006.85 1007.64 1008.39 1009.08 1009.73 1010.35 1010.98 1011.60 1012.24 1012.88 1013.52 1014.13 1014.72 1015.26 1015.78 1016.26 1016.72 1017.17 1017.62 1018.07 1018.50
Thickness
5716 5721 5725 5725 5719 5715 5718 5725 5728 5728 5730 5735 5737 5739 5741 5740 5738 5733 5737 5744 5745 5746 5745 5742 5741 5741 5740 5740 5739 5739 5738 5737 5736 5736 5735 5734 5733 5732 5731 5730 5729 5729 5728 5727 5726 5725 5724 5723 5722
5712 5716 5718 5716 5710 5708 5716 5722 5721 5724 5726 5729 5731 5733 5735 5734 5734 5732 5734 5738 5741 5742 5741 5740 5737 5737 5737 5736 5736 5735 5734 5734 5733 5732 5731 5730 5729 5728 5728 5727 5726 5725 5724 5723 5722 5721 5720 5719 5719
5707 5710 5709 5706 5704 5711 5716 5717 5718 5720 5722 5723 5724 5727 5728 5727 5728 5728 5730 5733 5735 5736 5736 5735 5733 5733 5733 5732 5732 5731 5730 5730 5729 5728 5727 5727 5726 5725 5724 5723 5722 5721 5720 5719 5718 5717 5716 5715 5715
5701 5701 5699 5696 5699 5708 5712 5711 5710 5711 5714 5716 5718 5718 5720 5720 5721 5723 5726 5728 5730 5731 5731 5730 5729 5728 5728 5728 5727 5727 5726 5725 5724 5724 5723 5723 5722 5721 5720 5719 5718 5717 5716 5715 5714 5713 5713 5712 5711
5694 5692 5687 5686 5694 5701 5703 5702 5703 5705 5707 5710 5712 5712 5712 5713 5717 5718 5720 5722 5724 5725 5725 5724 5723 5723 5723 5723 5723 5722 5722 5721 5720 5719 5719 5718 5717 5716 5715 5715 5714 5712 5711 5711 5710 5709 5708 5707 5707
5681 5682 5680 5684 5691 5692 5693 5692 5694 5697 5700 5702 5703 5705 5706 5708 5709 5711 5713 5715 5717 5718 5718 5718 5717 5718 5718 5718 5718 5718 5717 5716 5716 5715 5714 5713 5712 5711 5710 5709 5709 5708 5707 5706 5705 5704 5704 5703 5702
5670 5670 5673 5679 5681 5681 5681 5681 5684 5688 5690 5693 5697 5697 5700 5700 5701 5703 5705 5708 5709 5710 5711 5711 5712 5712 5712 5712 5712 5712 5712 5711 5711 5710 5709 5708 5707 5706 5705 5704 5703 5702 5701 5701 5700 5699 5699 5698 5698
5660 5659 5659 5664 5667 5670 5669 5669 5672 5675 5680 5684 5688 5688 5691 5693 5694 5696 5698 5700 5701 5703 5704 5705 5706 5706 5707 5707 5707 5706 5706 5706 5705 5704 5704 5703 5702 5701 5699 5698 5697 5696 5695 5695 5694 5694 5693 5693 5693
5648 5646 5650 5654 5655 5657 5656 5655 5659 5663 5667 5671 5676 5680 5683 5685 5686 5687 5689 5691 5693 5695 5697 5698 5699 5700 5701 5701 5701 5701 5700 5700 5699 5699 5697 5697 5696 5695 5694 5692 5690 5690 5689 5689 5688 5688 5688 5688 5687
5636 5635 5641 5642 5643 5641 5641 5642 5645 5651 5656 5661 5665 5669 5672 5674 5677 5678 5681 5683 5685 5687 5689 5691 5692 5693 5694 5695 5695 5695 5695 5695 5694 5693 5692 5691 5691 5689 5688 5686 5685 5684 5684 5683 5683 5682 5682 5683 5684
5623 5624 5626 5625 5626 5627 5628 5630 5635 5640 5646 5652 5656 5659 5662 5664 5667 5670 5673 5676 5678 5680 5681 5683 5684 5685 5686 5687 5688 5689 5689 5689 5689 5688 5686 5685 5684 5683 5682 5681 5679 5679 5679 5679 5677 5677 5679 5679 5679
5610 5610 5612 5613 5611 5613 5616 5619 5623 5630 5638 5644 5647 5649 5651 5655 5659 5661 5664 5667 5670 5671 5672 5674 5675 5677 5678 5679 5680 5681 5682 5682 5682 5681 5680 5679 5679 5678 5677 5676 5675 5675 5674 5674 5674 5674 5674 5674 5674
5600 5600 5600 5600 5600 5602 5605 5608 5613 5620 5627 5633 5636 5637 5641 5646 5650 5653 5655 5657 5660 5661 5663 5665 5666 5668 5669 5671 5673 5674 5674 5675 5675 5674 5673 5673 5673 5672 5671 5671 5670 5669 5669 5669 5669 5669 5669 5669 5669
5590 5590 5591 5591 5592 5594 5595 5599 5603 5615 5618 5621 5625 5628 5632 5636 5640 5643 5645 5648 5651 5653 5654 5656 5658 5660 5661 5663 5665 5666 5666 5667 5667 5667 5667 5666 5666 5666 5665 5665 5664 5664 5663 5663 5663 5663 5663 5663 5663
5579 5580 5584 5585 5584 5585 5585 5592 5599 5607 5608 5611 5616 5620 5622 5626 5630 5634 5637 5640 5643 5645 5646 5647 5649 5651 5652 5654 5656 5657 5658 5659 5660 5659 5659 5660 5660 5660 5659 5659 5658 5658 5657 5657 5657 5657 5656 5656 5656
5572 5574 5578 5579 5575 5575 5574 5588 5597 5597 5598 5602 5607 5611 5613 5617 5621 5626 5629 5632 5634 5636 5638 5639 5641 5642 5644 5646 5648 5649 5650 5651 5652 5652 5653 5653 5652 5653 5653 5653 5652 5650 5650 5650 5650 5650 5650 5650 5650
5566 5568 5570 5570 5567 5565 5566 5578 5588 5588 5590 5594 5598 5603 5606 5609 5614 5618 5621 5624 5627 5629 5630 5631 5633 5634 5636 5638 5639 5641 5642 5643 5644 5644 5645 5645 5645 5645 5646 5646 5645 5644 5643 5643 5643 5643 5644 5643 5643
5560 5562 5562 5561 5559 5555 5557 5567 5575 5577 5580 5587 5591 5596 5598 5602 5607 5610 5613 5616 5619 5621 5622 5623 5624 5626 5627 5629 5631 5632 5633 5634 5636 5637 5637 5637 5638 5637 5638 5639 5638 5637 5637 5636 5636 5635 5635 5635 5635
5547 5546 5550 5552 5549 5545 5552 5559 5568 5570 5573 5579 5584 5588 5592 5595 5599 5601 5603 5605 5608 5609 5611 5613 5614 5617 5619 5621 5623 5624 5625 5627 5628 5629 5629 5630 5630 5630 5630 5631 5631 5630 5630 5630 5629 5628 5627 5627 5627
5536 5536 5542 5545 5542 5539 5545 5555 5564 5565 5567 5572 5576 5580 5585 5588 5590 5591 5593 5595 5598 5600 5602 5605 5607 5609 5612 5614 5615 5616 5617 5618 5620 5620 5620 5621 5622 5622 5622 5623 5623 5622 5622 5622 5622 5621 5620 5619 5619
5530 5532 5536 5535 5534 5535 5537 5555 5563 5565 5564 5566 5570 5573 5578 5581 5583 5584 5585 5587 5589 5591 5595 5598 5600 5602 5603 5605 5606 5606 5607 5609 5610 5611 5612 5613 5614 5614 5614 5615 5615 5615 5615 5615 5614 5614 5613 5612 5611
5531 5530 5527 5525 5526 5533 5530 5545 5563 5560 5561 5562 5564 5567 5570 5573 5576 5577 5578 5579 5581 5584 5587 5590 5593 5595 5596 5597 5599 5601 5603 5604 5605 5604 5604 5605 5605 5605 5606 5606 5606 5607 5607 5607 5607 5607 5606 5605 5604
5523 5520 5518 5518 5517 5519 5526 5528 5558 5557 5558 5560 5561 5562 5564 5566 5569 5570 5572 5573 5574 5577 5579 5582 5585 5587 5588 5589 5592 5593 5594 5595 5595 5595 5595 5596 5597 5597 5597 5597 5597 5598 5599 5599 5599 5598 5598 5598 5597
5513 5513 5513 5512 5514 5518 5525 5528 5551 5556 5555 5557 5556 5557 5559 5560 5562 5563 5564 5565 5567 5568 5570 5573 5576 5580 5581 5581 5582 5583 5585 5585 5585 5586 5586 5587 5588 5588 5588 5588 5588 5589 5590 5590 5590 5589 5589 5589 5588
5508 5511 5518 5520 5520 5530 5522 5522 5545 5552 5550 5549 5549 5551 5552 5553 5555 5556 5557 5558 5560 5562 5562 5564 5567 5569 5571 5572 5573 5574 5576 5577 5577 5577 5578 5579 5579 5580 5581 5581 5581 5581 5581 5581 5581 5580 5580 5580 5579
5503 5505 5509 5516 5526 5535 5520 5526 5548 5545 5543 5541 5542 5544 5543 5544 5546 5547 5549 5550 5553 5555 5556 5556 5557 5559 5561 5563 5564 5566 5566 5566 5567 5568 5569 5570 5571 5572 5572 5572 5572 5572 5573 5572 5572 5571 5570 5570 5570
5499 5500 5497 5497 5497 5506 5528 5531 5540 5540 5537 5536 5535 5536 5536 5537 5537 5539 5540 5542 5544 5545 5547 5548 5550 5552 5553 5554 5555 5556 5557 5556 5557 5559 5559 5560 5561 5562 5562 5563 5564 5563 5564 5563 5563 5562 5561 5560 5559
5493 5492 5488 5491 5498 5515 5530 5533 5540 5534 5530 5529 5527 5527 5529 5529 5529 5530 5532 5534 5535 5536 5538 5539 5542 5543 5544 5545 5546 5547 5547 5548 5547 5548 5549 5550 5552 5552 5552 5553 5555 5554 5554 5554 5553 5552 5551 5550 5549
5483 5481 5482 5486 5488 5504 5520 5538 5536 5527 5524 5522 5520 5519 5519 5519 5520 5521 5523 5525 5526 5527 5529 5531 5533 5534 5535 5536 5537 5537 5538 5539 5538 5538 5540 5541 5541 5541 5543 5544 5545 5545 5545 5544 5544 5543 5541 5540 5539
5478 5482 5480 5484 5484 5487 5502 5525 5523 5518 5516 5513 5512 5511 5511 5512 5513 5513 5514 5515 5517 5519 5521 5522 5524 5524 5525 5526 5526 5527 5528 5529 5529 5530 5530 5531 5531 5532 5533 5534 5535 5536 5535 5535 5535 5534 5532 5531 5529